www.pogodaiklimat.ru

Погода и климат >> Архив погоды >> Аргентина >> San Fernando del Valle de Catamarca


ПОГОДА в San Fernando del Valle de Catamarca

  • Прогноз погоды в San Fernando del Valle de Catamarca
  • Монитор погоды в San Fernando del Valle de Catamarca
  • Климат города

АРХИВ ПОГОДЫ в San Fernando del Valle de Catamarca

Время (UTC), дата Ветер
(напр.,м/с)
 
Видим.   Явления Облачность Т
(С)
Тd
(С)
f
(%)
Тe
(С)
Тes
(С)
Комфортность P
(гПа)
Po
(гПа)
Тmin
(С)
Tmax
(С)
R
(мм)
R24
(мм)
S
(см)
06 15.09 С 5 20 км ясно +17.4 +10.5 64 +17 +17 1008.2 956.6
09 15.09 С 4 20 км ясно +16.2 +9.1 63 +15 +15 1006.9 955.4
12 15.09 С 4 20 км 3/0
[Cs]
+19.0 +11.2 61 +20 +21 1008.7 956.9 +13.0 +19.6
15 15.09 С 10 20 км 4/0
[Cs]
+25.6 +9.3 36 +26 +27 жарко 1006.6 955.4
18 15.09 С 13 20 км 4/3 1500 м
[Sc Cs]
+28.6 +7.9 27 +28 +28 жарко 1003.1 952.2
21 15.09 С 15 20 км 5/1 1500 м
[Sc Cs]
+26.2 +8.8 33 +26 +26 жарко 1002.4 951.3
00 16.09 С 5 20 км 3/0
[Cs]
+22.1 +8.8 43 +23 +23 комфорт 1005.9 954.5 +19.0 +29.0
03 16.09 СВ 6 20 км ясно +20.2 +8.8 48 +21 +21 комфорт 1006.2 955.2
06 16.09 В 2 20 км 5/5 1200 м
[Sc]
+19.6 +11.5 59 +21 +21 комфорт 1005.3 954.5
09 16.09 ЮЗ 11 20 км зарница 10/10 1200 м
[Sc]
+17.8 +11.0 64 +16 +16 1010.1 958.6
12 16.09 Ю 2 20 км 9/9 450 м
[Sc]
+14.4 +10.7 78 +14 +14 1013.9 961.7 +13.4 +22.4
15 16.09 Ю 3 20 км 4/1 1500 м
[Cu hum Cs]
+22.2 +8.2 41 +23 +33 комфорт 1012.8 961.2
18 16.09 Ю 5 20 км 1/0
[Cs]
+23.2 +6.1 33 +24 +31 комфорт 1010.6 959.0
21 16.09 Ю 6 20 км ясно +24.6 +3.2 25 +24 +25 комфорт 1009.7 958.2
00 17.09 СЗ 1 20 км ясно +15.4 +4.2 47 +16 +16 1012.3 959.6 +14.4 +25.0
03 17.09 С 5 20 км ясно +14.8 +5.9 55 +14 +14 1011.7 959.7
06 17.09 С 2 20 км ясно +16.6 +7.8 56 +17 +17 1010.1 958.4
09 17.09 С 5 20 км ясно +13.0 +7.5 69 +11 +11 1009.7 957.8
12 17.09 З 1 20 км ясно +16.8 +5.1 46 +18 +22 1011.9 959.6 +11.5 +17.0
15 17.09 СВ 1 20 км ясно +25.3 +1.5 21 +24 +43 комфорт 1009.7 958.0
18 17.09 Ю 1 20 км ясно +30.6 -0.1 14 +28 +44 жарко 1004.8 954.0
21 17.09 С 5 20 км ясно +27.6 +3.0 21 +26 +27 жарко 1003.6 952.2
00 18.09 С 11 20 км ясно +24.0 +8.4 37 +25 +25 комфорт 1004.3 953.0 +16.6 +32.5
03 18.09 С 12 20 км 5/0
[Cs]
+23.3 +7.1 35 +24 +24 комфорт 1003.5 952.9
06 18.09 С 10 20 км ясно +21.4 +7.1 40 +22 +22 комфорт 1001.2 951.0
09 18.09 С 8 20 км ясно +20.2 +8.1 46 +21 +21 комфорт 1000.1 949.6
12 18.09 ЮЗ 3 20 км ясно +17.3 +8.9 58 +17 +20 1003.2 952.0 +14.0 +24.0
15 18.09 штиль 0 20 км ясно +25.4 +9.5 37 +26 +46 жарко 1000.3 949.8
18 18.09 ЮЗ 4 20 км 3/0
[Cs]
+32.0 +8.3 23 +31 +40 жарко 995.2 945.4
21 18.09 С 7 20 км 9/0
[Ac As]
+30.6 +8.1 25 +30 +30 жарко 995.0 945.0
00 19.09 С 2 20 км ясно +25.2 +8.2 34 +26 +26 жарко 998.1 947.2 +17.3 +33.0
03 19.09 С 1 20 км ясно +22.7 +7.2 37 +24 +24 комфорт 1000.2 949.7
06 19.09 Ю 8 20 км ясно +18.8 +7.9 49 +18 +18 1002.3 951.8
09 19.09 Ю 2 20 км 1/1 1350 м
[Sc]
+15.0 +7.2 60 +15 +15 1007.1 956.0
12 19.09 СВ 1 20 км 4/1 1500 м
[Sc Ac As Ci fib]
+17.2 +4.6 43 +18 +21 1011.1 959.6 +11.8 +25.4
15 19.09 З 3 20 км 9/3 1500 м
[Sc Ac As]
+21.4 +7.1 40 +22 +26 комфорт 1010.2 958.8
18 19.09 С 9 20 км 4/1 1500 м
[Sc Ac As Cs]
+25.8 +3.5 24 +25 +26 комфорт 1006.5 955.4
21 19.09 С 7 20 км 4/1 1500 м
[Sc Cs]
+25.0 +3.9 25 +24 +25 комфорт 1007.3 955.7
00 20.09 С 5 20 км ясно +20.4 +3.9 34 +21 +21 комфорт 1010.1 958.2 +17.2 +27.0
03 20.09 С 4 20 км ясно +18.6 +3.9 38 +19 +19 1011.8 960.0
06 20.09 С 5 20 км ясно +16.8 +4.0 43 +16 +16 1011.0 959.4
09 20.09 С 5 20 км ясно +15.8 +3.4 43 +15 +15 1010.9 959.3
12 20.09 С 6 20 км 1/0
[Cs]
+19.0 +3.4 35 +19 +20 1012.4 960.5 +14.6 +20.8
15 20.09 С 5 20 км 1/0
[Ci fib]
+25.4 +4.6 26 +25 +32 комфорт 1009.8 958.5
18 20.09 С 3 20 км 4/0
[Cs]
+29.4 +5.3 22 +28 +40 жарко 1006.2 954.2
21 20.09 С 8 20 км 8/0
[Cs]
+28.2 +5.5 24 +27 +27 жарко 1004.2 953.0
00 21.09 С 8 20 км 5/0
[Cs]
+23.0 +5.8 33 +23 +23 комфорт 1006.1 954.8 +18.0 +31.5
03 21.09 С 6 20 км 9/0
[Cs]
+21.5 +6.4 37 +22 +22 комфорт 1007.2 956.2
06 21.09 С 5 20 км 5/0
[Cs]
+22.0 +7.5 39 +23 +23 комфорт 1005.3 954.8
09 21.09 ЮВ 3 20 км 3/0
[Cs]
+13.8 +6.1 60 +13 +13 1006.7 955.3
12 21.09 ЮВ 2 20 км 5/0
[Cs]
+18.4 +10.9 62 +20 +23 1008.9 957.4 +10.4 +23.0
15 21.09 В 1 20 км 3/0
[Cs]
+27.0 +11.8 39 +28 +45 жарко 1006.9 956.1
18 21.09 Ю 1 20 км ясно +33.6 +9.5 23 +33 +50 жарко 1001.8 951.8
21 21.09 С 12 20 км ясно +32.8 +9.7 24 +32 +32 жарко 1000.2 949.6
00 22.09 С 10 20 км ясно +29.0 +13.3 38 +31 +31 жарко 1000.7 950.1 +18.4 +36.4
03 22.09 С 6 20 км ясно +28.2 +14.3 43 +30 +30 жарко 1000.3 950.4

 

Местоположение метеостанции San Fernando del Valle de Catamarca (Аргентина): широта -28.60 долгота -65.76 высота над уровнем моря 454 м.

В архиве по умолчанию представлена погода в San Fernando del Valle de Catamarca за последнюю неделю. Архивные данные за месяц целиком и за предыдущие месяцы, начиная с января 2011 года, Вы можете получить, выбрав интересующий диапазон дат из раскрывающегося списка и нажав кнопку "Ввод!".


*Определитесь, кто Вы:
робот инопланетянин человек

Внимание! Время в таблицах - всемирное. Для получения местного времени необходимо прибавить поправку, которая в San Fernando del Valle de Catamarca равна -3 ч.

Смотрите также архив погоды в соседних городах и на ближайших метеорологических станциях:

Погода в La Rioja (Аргентина) (134 км)
Погода в Santiago del Estero (Аргентина) (171 км)
Погода в Chamical (Аргентина) (202 км)
Погода в San Miguel de Tucuman (Аргентина) (206 км)
Погода в Villa de Maria del Rio Seco (Аргентина) (248 км)
Погода в Cordoba (Аргентина) (336 км)
Погода в Villa Dolores (Аргентина) (377 км)
Погода в Pilar (Аргентина) (385 км)
Погода в Ceres (Аргентина) (396 км)
Погода в San Juan (Аргентина) (403 км)

Пояснения к столбцам:

Ветер - указаны скорость ветра в м/с - средняя за 10 мин, порывы в срок и между сроками (в фигурных скобках) и направление, откуда дует ветер: С - северный, СВ - северо-восточный, В - восточный, ЮВ - юго-восточный, Ю - южный, ЮЗ - юго-западный, З - западный, СЗ - северо-западный.
Видимость - горизонтальная дальность видимости в метрах или километрах. При видимости от 1 до 10 км при отсутствии осадков обычно наблюдается дымка, при ухудшении видимости до 1 км и менее - туман. В сухую погоду видимость может ухудшаться дымом, пылью или мглою.
Явления - указаны атмосферные явления, наблюдавшиеся в срок или в последний час перед сроком; фигурными скобками обозначены явления, наблюдавшиеся между сроками (за 1-3 часа до срока); квадратными скобками обозначены град или гололедные отложения с указанием их диаметра в мм.
Облачность - указаны через наклонную черту общая и нижняя облачность в баллах и высота нижней границы облаков в метрах; квадратными скобками обозначены формы облаков: Ci - перистые, Cs - перисто-слоистые, Cc - перисто-кучевые, Ac - высококучевые, As - высокослоистые, Sc - слоисто-кучевые, Ns - слоисто-дождевые, Cu - кучевые, Cb - кучево-дождевые. Подробнее классификацию облаков см. в Атласе облаков (PDF).
T - Температура воздуха - температура, измеренная на высоте 2 м над землей.
Td - Температура точки росы - температура, при понижении до которой содержащийся в воздухе водяной пар достигнет насыщения.
f - Относительная влажность воздуха - влажноcть воздуха, измеренная на высоте 2 м над землей.
Te - Эффективная температура - температура, которую ощущает одетый по сезону человек в тени. Характеристика душности погоды. При расчете учитывается влияние влажности воздуха и скорости ветра на теплоощущения человека.
Tes - Эффективная температура на солнце - температура, которую ощущает человек, с поправкой на солнечный нагрев. Характеристика знойности погоды. Зависит от высоты солнца над горизонтом, облачности и скорости ветра. Ночью, в пасмурную погоду, а также при ветре 12 м/с и более поправка равна нулю.
P - Атмосферное давление - приведенное к уровню моря атмосферное давление.
Po - Атмосферное давление - измеренное на уровне метеостанции атмосферное давление.
Tmin - Минимальная температура - минимум температуры воздуха на высоте 2 м над землей.
Tmax - Максимальная температура - максимум температуры воздуха на высоте 2 м над землей.
R - Количество осадков - Количество выпавших осадков за период времени, мм. При наведении курсора мыши на число - период времени, за который выпало указанное количество осадков.
R24 - Количество осадков - Количество выпавших осадков за 24 часа, мм.
S - Снежный покров - Высота снежного покрова, см. При наведении курсора мыши на число - состояние снежного покрова и степень покрытия местности в баллах.